GFSNE_2pvu_pres_105.txt.gz
Presure
179 207 184 124 158 153 122 140 183 174 206 153 144 169 202 207 135 196 130 195 167 143 190 183 186 204 175 171 191 178 209 157 198 171 194 167 177 187
205 224 235 233 203 213 248 184 140 206 175 195 194 204 210 205 202 201 193 145 141 167 197 196 223 198 189 190 164 175 207 189 196 176 184 183 192 196
238 229 217 230 164 247 223 189 212 192 210 216 206 197 196 205 205 202 204 209 207 206 161 176 212 208 213 171 159 186 212 170 180 193 190 196 189 206
248 279 252 246 183 222 210 194 209 201 189 190 191 206 210 209 199 190 198 213 205 166 155 160 196 187 190 189 194 190 218 203 194 180 189 155 183 184
253 166 165 232 226 199 184 227 215 206 182 190 171 201 197 209 228 222 194 218 199 205 204 201 173 187 179 185 186 213 182 180 165 182 191 210 208 218
250 247 241 208 215 215 200 203 210 189 199 190 189 169 137 185 215 213 181 207 192 204 197 198 193 202 204 189 193 180 174 171 191 192 203 191 198 228
251 241 230 205 211 217 202 214 207 222 208 193 226 218 217 217 200 212 211 198 210 203 195 192 206 197 186 164 198 204 207 195 186 208 218 229 223 224
247 244 236 241 250 228 204 215 197 198 233 215 202 214 172 165 178 194 199 200 172 221 210 230 197 213 192 198 184 191 193 201 239 255 228 229 228 210
203 237 236 156 234 230 241 199 199 209 234 224 214 212 215 207 201 193 184 193 195 198 205 210 194 198 211 212 204 205 208 248 216 217 230 198 209 224
201 151 157 169 206 244 198 231 225 224 221 224 234 202 209 202 215 217 212 212 215 201 211 210 188 192 198 238 230 230 231 227 230 213 206 209 217 214
161 145 183 207 231 188 199 221 221 237 233 193 225 224 220 197 213 208 221 224 193 233 229 229 209 223 204 202 209 201 205 214 206 223 173 213 213 198
162 208 204 203 257 229 238 243 223 225 236 233 203 198 218 220 216 206 215 202 203 221 224 221 198 198 201 215 208 217 214 202 209 206 218 203 199 207
239 235 245 248 225 249 255 252 229 248 233 215 230 228 211 206 198 201 210 211 207 194 192 198 197 193 205 210 200 210 208 215 204 194 205 192 207 209
270 252 234 237 235 240 241 232 252 227 260 257 233 244 233 232 230 223 212 229 217 219 228 211 208 202 201 194 196 195 202 204 194 202 203 203 210 218
275 267 283 252 291 249 247 296 276 265 261 261 245 252 248 246 229 229 229 227 213 207 219 199 220 212 209 215 212 194 203 201 201 202 213 195 212 205
275 283 284 303 348 454 531 513 503 490 480 300 253 250 250 246 242 252 244 238 232 226 219 218 217 212 213 208 218 221 233 230 231 241 227 205 211 221
307 422 530 524 524 514 508 499 486 472 459 454 496 473 450 265 253 248 243 256 238 235 239 240 232 233 229 224 216 221 219 223 226 224 199 213 218 218
518 510 505 495 482 475 470 467 464 455 443 436 436 479 444 422 408 310 254 248 244 238 238 239 231 228 229 236 235 246 230 228 197 230 229 196 233 229
490 484 475 459 450 450 446 441 438 433 427 422 420 439 456 426 398 383 365 250 243 244 238 237 238 235 237 234 231 219 228 224 222 227 234 227 229 239
469 459 448 500 493 479 470 463 453 443 432 427 424 431 430 430 402 372 391 339 333 289 250 246 244 239 240 224 222 231 217 212 226 217 214 221 213 223
454 442 506 495 469 452 440 428 417 409 406 405 405 410 412 428 397 370 360 365 338 323 311 293 250 255 241 237 231 224 226 224 224 229 226 224 231 239
436 471 501 477 446 427 412 402 393 389 385 383 385 389 397 396 414 362 353 352 348 345 339 329 320 300 257 253 248 247 249 244 239 248 241 241 249 279
454 480 492 457 425 402 390 378 367 364 364 368 377 378 377 388 410 367 354 323 323 317 321 333 316 326 302 297 296 289 281 266 261 270 284 293 290 277

GFSNE_2pvu_pres_108.txt.gz
Presure
134 134 134 140 128 188 145 184 209 155 166 190 128 231 168 158 174 160 181 172 192 209 162 198 190 190 212 191 191 144 193 197 194 194 210 207 163 192
196 199 200 206 178 136 178 155 214 155 142 176 190 241 224 222 234 192 207 211 194 203 194 186 192 193 174 191 192 190 169 204 213 169 207 203 196 188
228 216 215 219 194 202 198 218 247 237 235 201 240 224 194 220 220 212 190 211 188 198 195 191 190 196 199 198 185 188 165 168 205 193 194 186 184 200
255 280 246 158 252 264 251 249 247 234 225 226 214 242 200 238 219 202 221 203 199 194 202 204 188 195 199 187 178 184 233 226 203 162 177 216 196 212
245 278 282 269 278 249 248 242 237 233 243 220 224 251 226 238 226 209 203 214 194 195 198 203 194 198 205 201 205 231 208 181 178 194 207 194 185 191
273 256 254 251 275 258 250 232 250 238 228 241 207 242 235 236 224 213 204 188 171 177 187 205 189 181 192 200 195 187 205 205 211 201 202 186 184 198
284 263 261 262 253 251 258 240 233 244 250 241 240 241 197 229 212 192 215 221 202 214 199 173 187 207 214 222 225 203 198 201 199 225 193 196 201 198
264 257 249 254 253 242 172 226 241 249 243 248 191 240 232 187 207 193 207 207 210 221 203 199 211 224 163 229 195 203 194 195 197 219 184 204 195 206
214 253 259 250 236 197 209 239 239 209 152 127 126 144 153 156 205 181 213 213 210 225 211 219 206 213 216 214 216 208 207 208 225 189 215 219 228 218
242 245 246 250 251 118 147 195 246 159 159 194 230 163 229 195 237 224 215 190 208 213 222 210 212 205 203 200 204 206 198 217 207 224 252 247 186 205
204 204 156 177 217 224 151 221 242 214 158 222 242 232 192 189 222 226 216 192 239 230 232 232 207 172 210 216 213 225 218 239 238 188 194 214 206 200
173 195 199 222 184 190 210 248 227 210 166 174 173 233 223 205 233 210 223 232 221 191 210 221 226 225 222 228 215 193 187 187 194 193 193 209 198 204
195 178 155 158 169 158 166 162 185 243 240 239 137 249 233 222 224 221 222 209 227 219 216 210 213 197 202 203 183 198 211 195 199 208 183 203 197 200
190 185 168 192 163 217 223 229 235 236 203 235 234 234 236 245 232 221 208 217 225 224 219 200 215 204 202 217 201 197 193 201 188 201 199 202 194 199
263 209 167 271 274 279 285 285 279 226 226 286 220 260 227 231 233 250 238 256 238 224 212 222 216 220 216 212 218 205 208 206 204 209 195 207 184 211
279 277 277 278 283 295 295 294 265 291 292 272 297 294 257 252 251 253 246 265 263 245 258 255 230 225 225 208 209 212 212 203 200 202 205 202 200 199
280 279 289 293 303 291 285 282 293 306 210 416 422 427 421 407 374 277 288 262 240 254 254 227 228 228 235 235 225 216 214 215 212 209 213 210 212 214
293 300 310 289 295 310 328 465 519 512 508 509 510 513 516 498 480 477 471 470 456 306 244 236 231 242 238 222 225 241 239 230 218 216 217 212 223 222
293 285 303 328 407 382 502 494 482 473 471 469 472 474 478 477 457 446 443 446 448 417 387 386 329 247 253 243 229 231 226 229 225 215 216 226 228 228
318 480 384 470 498 487 473 467 472 498 496 449 445 446 447 442 434 421 395 415 455 410 367 352 357 335 337 239 231 238 234 228 235 229 229 224 225 217
381 364 477 474 462 461 521 495 477 467 466 466 426 424 422 417 411 405 404 402 441 383 375 346 336 304 331 307 294 265 244 241 239 220 228 224 213 226
444 465 455 450 471 524 486 460 444 437 432 427 423 419 407 397 395 390 388 393 413 372 369 375 325 299 334 325 306 289 289 283 289 242 236 228 226 207
465 457 464 474 513 481 445 426 416 408 403 400 400 400 401 401 426 397 390 379 402 376 331 343 315 299 295 283 315 283 289 286 276 281 284 197 232 233

GFSNE_2pvu_pres_111.txt.gz
Presure
136 157 195 143 142 204 147 173 151 136 165 189 192 195 188 143 182 144 146 225 212 141 209 206 199 165 192 188 193 207 194 181 183 183 192 194 194 196
182 147 144 141 136 135 138 184 204 182 184 183 188 190 193 205 199 165 209 243 231 212 179 210 163 127 163 162 182 195 154 189 185 186 191 192 189 171
141 143 203 251 244 232 233 217 207 189 206 191 205 203 209 204 219 165 229 235 231 220 201 238 204 194 181 197 154 191 187 192 188 183 194 173 199 203
143 150 249 255 253 278 243 240 174 233 224 220 216 216 225 236 224 239 168 164 226 216 226 221 211 199 207 210 209 184 189 192 178 190 166 155 170 165
281 273 232 232 233 268 215 188 262 260 181 174 287 278 161 269 254 248 233 231 221 218 230 210 209 212 202 216 186 205 188 195 195 200 135 164 133 201
213 272 212 283 210 267 221 163 288 275 268 269 272 256 255 244 240 235 239 232 219 219 221 205 227 221 225 219 193 180 202 194 193 197 187 184 198 192
289 282 283 288 282 266 278 271 270 262 260 258 247 250 247 244 236 239 234 225 225 218 215 219 229 229 221 223 218 207 205 200 206 194 194 169 188 191
278 269 268 276 276 270 258 252 249 262 267 254 259 255 265 262 240 137 250 241 241 157 200 196 171 231 217 193 191 210 192 196 211 210 191 227 217 214
259 249 260 231 141 258 135 172 151 153 237 165 248 247 233 252 163 215 206 208 175 163 171 229 144 221 207 169 173 202 202 210 214 208 205 212 215 212
147 159 149 155 161 217 241 240 228 248 248 234 159 242 244 196 151 150 239 164 159 195 158 159 171 219 221 208 204 207 186 205 205 208 207 207 214 205
228 234 237 237 241 243 243 247 186 248 200 201 179 164 204 239 224 235 211 156 198 162 147 223 223 227 213 209 217 218 217 215 219 211 212 219 218 223
224 223 223 227 226 224 222 248 203 169 232 185 197 195 179 148 151 220 236 240 241 233 183 202 219 219 228 230 229 229 232 229 238 234 232 203 218 212
227 229 229 234 240 226 176 234 173 180 175 196 180 170 175 214 184 173 185 226 200 213 233 221 217 227 225 215 208 209 201 204 219 208 206 207 207 209
227 195 190 188 222 215 213 186 217 195 178 176 234 183 187 209 194 187 171 163 238 233 224 227 235 224 219 225 223 213 223 193 207 202 202 204 205 199
220 228 184 234 216 218 227 228 241 231 168 270 277 277 255 243 265 250 243 237 225 237 229 228 230 214 235 208 233 219 209 202 214 211 221 195 203 200
264 263 159 268 274 278 189 283 284 296 300 291 277 284 281 273 269 273 269 259 251 258 242 232 233 233 237 240 220 230 222 232 212 210 213 216 201 203
285 296 301 305 308 307 307 318 310 306 297 294 289 286 289 287 281 277 281 281 280 289 281 270 255 247 242 230 233 254 237 220 213 212 217 224 216 208
330 335 335 331 330 329 332 330 329 326 327 326 323 310 309 307 304 304 304 298 293 285 287 292 281 270 265 267 242 231 239 244 227 252 237 225 221 214
337 318 317 309 315 317 312 302 302 312 324 326 327 330 333 390 391 392 393 389 384 372 349 304 295 267 248 274 263 251 249 234 237 228 228 230 225 226
316 315 307 312 328 377 448 504 500 492 462 371 528 522 519 494 480 481 489 497 500 496 486 484 472 454 356 295 249 253 261 255 242 240 235 238 222 227
335 441 500 492 487 483 482 475 473 498 519 501 494 492 492 451 449 454 460 468 453 443 420 457 452 408 377 434 345 287 261 254 239 250 234 230 236 221
494 493 494 490 480 474 473 484 522 496 475 466 461 463 466 428 431 433 433 437 440 413 409 448 434 391 373 363 331 312 310 331 313 273 265 266 269 246
494 490 483 479 476 480 501 517 460 443 434 429 429 433 429 414 415 414 415 410 400 378 399 398 392 434 356 328 325 318 316 307 314 296 292 278 277 283

GFSNE_2pvu_pres_114.txt.gz
Presure
134 137 124 140 121 149 154 133 129 129 133 151 154 195 189 133 134 206 169 186 182 173 174 188 180 191 197 199 204 225 215 203 195 190 220 204 218 185
137 134 129 136 133 129 130 142 140 167 186 134 158 176 200 191 166 187 179 188 197 178 187 187 195 200 198 175 215 227 195 183 201 199 218 198 194 197
121 141 150 233 152 144 148 148 139 136 200 231 161 198 205 210 183 194 194 194 199 196 203 208 209 212 217 219 234 204 216 227 201 215 205 191 190 194
155 157 144 144 145 136 135 136 142 144 143 244 260 260 250 250 283 289 246 225 216 220 158 221 233 156 250 223 239 224 212 215 213 196 204 203 192 207
262 170 155 145 167 167 239 228 247 243 200 171 237 192 249 249 248 261 169 242 241 237 237 264 251 234 244 239 237 223 224 224 210 209 208 197 203 210
156 231 298 245 226 304 302 302 232 262 243 259 208 238 210 252 283 220 272 260 247 259 249 205 250 254 240 239 215 194 221 214 211 208 217 218 212 211
177 173 199 196 287 292 215 279 270 276 281 281 275 195 276 257 263 269 264 267 252 258 254 256 248 240 233 229 232 216 209 213 178 207 203 211 185 177
277 280 278 278 277 283 131 277 256 258 235 266 257 259 261 273 263 261 267 256 229 258 251 239 233 228 230 235 222 218 216 213 215 171 150 206 208 153
263 255 261 270 270 170 272 278 269 177 164 273 229 147 169 245 238 223 198 154 232 249 252 255 240 240 143 239 213 190 172 225 200 173 193 209 216 217
248 241 249 253 257 255 258 262 208 154 153 154 164 156 161 158 245 241 245 244 236 248 256 206 244 246 197 143 194 194 187 219 145 149 204 206 205 211
171 172 166 168 169 165 162 162 161 237 247 253 250 249 245 250 250 242 246 238 237 176 157 232 227 151 161 218 213 150 228 223 174 160 221 219 224 215
228 224 232 233 232 233 232 220 215 218 229 229 244 248 248 248 248 209 254 199 241 241 233 236 179 198 157 155 184 236 240 237 241 177 185 217 217 216
241 240 245 234 233 229 223 225 225 248 237 233 230 234 232 234 221 205 241 222 153 143 204 153 168 166 153 193 150 154 214 177 223 226 205 226 227 232
234 235 237 240 241 244 242 240 238 239 239 240 207 202 237 244 246 196 219 215 194 169 226 201 152 173 232 203 173 206 205 198 196 232 201 201 204 204
169 225 173 233 238 241 243 192 238 237 179 172 172 237 169 219 219 200 237 228 225 226 155 212 166 215 215 213 215 214 215 205 214 212 226 193 198 208
269 265 261 258 256 252 250 248 249 247 250 244 165 242 241 239 237 237 237 155 237 230 233 155 228 229 236 231 229 230 227 224 217 219 214 214 215 213
300 294 294 294 294 294 294 293 292 294 298 300 300 297 301 312 322 305 285 267 267 280 287 276 255 272 275 253 260 245 234 232 232 230 225 220 220 223
365 356 345 352 348 346 345 346 345 345 344 337 338 336 332 348 345 325 314 305 302 299 290 288 289 287 279 267 265 254 248 254 241 238 237 234 228 223
314 313 316 318 319 324 327 329 330 334 334 334 336 340 338 329 328 325 328 333 336 340 339 310 313 299 282 271 266 268 257 250 249 246 241 242 247 230
315 317 320 326 369 367 371 376 373 371 373 379 378 378 384 383 380 378 376 333 320 315 305 302 318 323 307 290 280 266 263 257 250 249 248 246 247 245
508 498 497 505 510 507 492 496 499 491 489 498 523 518 505 500 499 505 507 502 489 485 498 522 528 431 319 308 306 310 303 282 266 261 259 250 256 249
501 505 512 515 516 510 509 497 497 517 512 486 474 469 469 471 473 479 461 449 455 466 489 477 473 486 505 495 467 365 302 280 280 272 263 271 262 254
525 531 533 537 538 532 531 484 461 450 442 441 440 440 441 447 427 426 429 434 442 435 425 412 427 431 460 482 451 420 451 470 356 321 268 255 250 243

GFSNE_2pvu_pres_117.txt.gz
Presure
140 157 139 141 142 270 134 134 128 144 135 124 128 132 129 128 135 133 130 182 129 143 173 181 181 174 181 181 195 202 173 200 167 191 200 205 210 155
141 150 192 156 153 180 150 124 120 118 123 133 201 150 143 143 151 144 131 163 135 155 164 183 178 182 171 181 158 181 188 187 190 201 203 203 220 218
133 131 128 130 197 133 132 130 129 131 135 138 167 138 152 136 135 136 135 134 152 172 186 190 184 156 201 206 208 201 207 214 196 216 215 239 236 220
272 283 135 136 149 133 127 141 143 272 200 129 132 180 248 247 164 162 238 150 150 240 249 247 231 226 234 261 163 243 235 218 240 240 229 250 237 229
356 358 309 341 305 128 142 258 152 135 282 136 136 135 138 166 247 256 265 257 244 252 272 161 204 220 178 261 252 253 254 222 239 231 260 237 228 204
324 151 195 145 143 142 143 142 152 144 145 149 148 150 182 288 238 251 243 237 203 232 230 182 243 240 232 252 257 250 260 248 242 230 240 228 226 217
288 291 288 181 152 152 152 152 166 203 304 320 294 208 245 255 247 290 156 302 228 181 252 272 228 263 267 247 263 240 238 243 201 246 230 228 220 216
282 291 289 283 287 287 235 203 194 294 283 276 273 273 269 265 272 276 268 296 239 271 238 153 267 253 251 239 184 254 247 245 250 234 146 222 221 221
265 248 272 279 286 289 281 278 276 277 274 273 179 276 272 268 264 271 261 176 268 253 268 183 208 263 251 178 165 183 254 245 240 228 202 202 212 205
246 257 263 267 267 268 267 275 278 279 279 278 275 273 275 275 277 269 203 152 152 248 272 219 223 258 258 255 219 245 233 241 239 176 141 213 182 213
244 239 235 233 222 261 267 197 183 184 198 248 261 229 171 170 188 188 169 171 243 264 249 235 245 245 247 251 243 245 258 244 249 241 234 220 168 164
251 249 240 241 241 242 238 256 257 254 242 254 253 256 257 259 253 259 258 262 266 239 256 238 238 236 238 233 238 240 189 204 144 239 159 155 238 234
254 252 256 251 249 250 243 241 244 242 240 231 232 237 240 241 248 250 249 252 246 256 245 253 247 243 242 241 237 217 181 166 225 197 173 185 176 176
278 272 268 261 259 254 235 223 211 176 246 222 197 215 197 199 233 231 227 225 224 228 228 227 225 201 182 208 228 228 219 209 147 193 143 172 157 164
343 317 292 279 277 274 267 264 261 256 252 248 244 250 245 244 221 201 246 243 237 200 234 172 154 231 220 222 218 169 171 188 188 209 223 191 191 177
338 312 324 335 333 310 296 288 283 278 268 264 261 254 251 249 242 240 221 243 243 237 230 229 216 224 226 231 230 230 197 205 209 201 197 151 186 194
346 353 357 364 371 323 339 335 337 343 315 300 288 281 273 267 262 260 256 252 250 254 251 238 236 228 229 226 230 229 223 223 210 195 215 213 211 211
305 311 313 318 326 332 337 344 353 361 367 373 383 393 380 363 300 291 281 276 271 267 265 261 258 250 239 237 232 231 230 224 227 227 220 224 224 226
298 303 310 315 320 323 326 328 330 333 335 336 338 343 346 349 356 364 374 377 375 368 350 299 290 288 288 277 265 259 246 238 235 235 238 227 220 224
538 559 548 540 537 537 537 536 532 524 515 514 517 514 381 378 334 330 328 329 334 339 346 352 354 344 338 331 323 301 296 296 266 255 247 243 242 245
396 408 439 518 533 562 555 548 537 532 523 520 525 528 529 519 512 514 516 519 525 433 333 326 324 323 335 344 339 335 320 307 292 282 273 265 265 254
361 359 364 374 390 411 420 428 439 448 453 455 458 461 464 468 473 478 486 494 504 499 476 479 492 484 368 325 314 312 309 327 301 290 279 283 265 267
346 346 345 347 350 358 367 377 379 383 389 397 410 420 429 435 447 457 437 437 438 444 489 467 458 457 478 498 548 544 325 299 302 311 298 294 290 274